TimeEDT,TemperatureF,Dew PointF,Humidity,Sea Level PressureIn,VisibilityMPH,Wind Direction,Wind SpeedMPH,Gust SpeedMPH,PrecipitationIn,Events,Conditions,WindDirDegrees,DateUTC
12:14 AM,32.0,21.2,64,30.00,10.0,SW,6.9,-,N/A,,Overcast,230,2013-03-15 04:14:00
12:34 AM,32.0,22.5,68,30.00,10.0,SW,6.9,-,N/A,,Overcast,230,2013-03-15 04:34:00
12:54 AM,32.2,23.5,70,30.00,10.0,WSW,8.1,-,N/A,,Overcast,250,2013-03-15 04:54:00
1:14 AM,32.2,23.9,72,29.99,10.0,WSW,5.8,-,N/A,,Overcast,240,2013-03-15 05:14:00
1:34 AM,32.0,24.6,74,29.98,10.0,WSW,9.2,-,N/A,,Overcast,250,2013-03-15 05:34:00
1:54 AM,32.0,24.8,75,29.98,10.0,WSW,6.9,-,N/A,,Scattered Clouds,250,2013-03-15 05:54:00
2:13 AM,32.0,24.8,75,29.97,10.0,WSW,5.8,-,N/A,,Clear,240,2013-03-15 06:13:00
2:34 AM,31.8,24.8,75,29.96,10.0,WSW,5.8,-,N/A,,Clear,250,2013-03-15 06:34:00
2:54 AM,31.6,25.2,77,29.96,10.0,WSW,5.8,-,N/A,,Clear,240,2013-03-15 06:54:00
3:13 AM,32.0,25.7,78,29.96,10.0,West,5.8,-,N/A,,Mostly Cloudy,260,2013-03-15 07:13:00
3:34 AM,32.4,26.6,79,29.95,10.0,West,8.1,-,N/A,,Overcast,260,2013-03-15 07:34:00
3:54 AM,32.9,27.0,79,29.94,10.0,West,8.1,-,N/A,,Overcast,260,2013-03-15 07:54:00
4:13 AM,33.1,27.1,79,29.93,10.0,West,9.2,-,N/A,,Overcast,260,2013-03-15 08:13:00
4:34 AM,33.3,27.3,79,29.91,10.0,West,11.5,-,N/A,,Overcast,270,2013-03-15 08:34:00
4:54 AM,33.3,27.5,79,29.90,10.0,West,10.4,-,N/A,,Overcast,260,2013-03-15 08:54:00
5:14 AM,33.4,27.5,79,29.89,10.0,West,10.4,-,N/A,,Overcast,260,2013-03-15 09:14:00
5:34 AM,33.6,27.5,78,29.88,10.0,West,11.5,16.1,N/A,,Overcast,260,2013-03-15 09:34:00
5:53 AM,33.4,27.5,79,29.88,10.0,West,9.2,18.4,N/A,,Overcast,270,2013-03-15 09:53:00
6:14 AM,33.4,27.5,79,29.88,10.0,West,11.5,18.4,N/A,,Overcast,270,2013-03-15 10:14:00
6:34 AM,33.4,27.5,79,29.87,7.0,West,9.2,-,N/A,,Overcast,270,2013-03-15 10:34:00
6:53 AM,33.4,27.5,79,29.87,7.0,West,9.2,-,N/A,,Overcast,270,2013-03-15 10:53:00
7:14 AM,33.3,27.7,80,29.87,7.0,West,9.2,-,N/A,,Overcast,270,2013-03-15 11:14:00
7:34 AM,33.4,27.9,80,29.87,7.0,West,8.1,-,N/A,,Overcast,260,2013-03-15 11:34:00
7:53 AM,33.3,28.0,81,29.87,7.0,West,9.2,-,N/A,,Overcast,280,2013-03-15 11:53:00
8:14 AM,33.3,28.2,82,29.86,5.0,West,8.1,-,N/A,,Haze,280,2013-03-15 12:14:00
8:34 AM,33.3,28.4,82,29.87,5.0,West,6.9,-,N/A,,Haze,270,2013-03-15 12:34:00
8:54 AM,33.4,28.4,82,29.87,5.0,West,8.1,-,N/A,,Haze,270,2013-03-15 12:54:00
9:14 AM,33.4,28.4,82,29.87,5.0,West,5.8,-,N/A,,Haze,270,2013-03-15 13:14:00
9:34 AM,33.8,28.4,81,29.87,5.0,West,6.9,-,N/A,,Haze,270,2013-03-15 13:34:00
9:54 AM,33.8,28.8,82,29.87,5.0,WNW,8.1,-,N/A,,Haze,290,2013-03-15 13:54:00
10:14 AM,34.0,29.1,82,29.87,5.0,West,8.1,-,N/A,,Haze,280,2013-03-15 14:14:00
10:34 AM,34.3,29.1,81,29.86,5.0,WNW,8.1,-,N/A,,Haze,290,2013-03-15 14:34:00
10:54 AM,34.7,29.1,80,29.87,5.0,WNW,6.9,-,N/A,,Haze,300,2013-03-15 14:54:00
11:14 AM,35.1,28.9,78,29.87,7.0,NW,8.1,-,N/A,,Overcast,310,2013-03-15 15:14:00
11:33 AM,35.1,28.9,78,29.87,7.0,NW,8.1,-,N/A,,Overcast,320,2013-03-15 15:33:00
11:54 AM,35.2,29.1,78,29.87,7.0,NNW,10.4,-,N/A,,Overcast,330,2013-03-15 15:54:00
12:14 PM,35.6,29.1,77,29.86,7.0,NW,6.9,-,N/A,,Overcast,320,2013-03-15 16:14:00
12:34 PM,35.6,29.3,78,29.86,7.0,NW,5.8,-,N/A,,Overcast,320,2013-03-15 16:34:00
12:54 PM,36.5,28.9,74,29.86,10.0,NNW,9.2,-,N/A,,Overcast,340,2013-03-15 16:54:00
1:13 PM,36.9,28.4,71,29.86,10.0,NW,8.1,-,N/A,,Overcast,320,2013-03-15 17:13:00
1:34 PM,36.5,28.9,74,29.86,10.0,NNW,4.6,-,N/A,,Overcast,330,2013-03-15 17:34:00
1:54 PM,36.9,28.9,73,29.86,10.0,NW,5.8,-,N/A,,Overcast,320,2013-03-15 17:54:00
2:14 PM,36.9,28.4,71,29.86,10.0,NNW,8.1,-,N/A,,Overcast,340,2013-03-15 18:14:00
2:34 PM,35.8,28.6,75,29.86,10.0,North,6.9,-,N/A,,Overcast,10,2013-03-15 18:34:00
2:54 PM,35.6,27.9,73,29.86,10.0,North,8.1,-,N/A,,Overcast,10,2013-03-15 18:54:00
3:14 PM,35.2,26.8,71,29.85,10.0,North,8.1,-,N/A,,Overcast,360,2013-03-15 19:14:00
3:34 PM,35.6,26.4,69,29.86,10.0,NNE,4.6,-,N/A,,Overcast,20,2013-03-15 19:34:00
3:54 PM,35.8,25.3,66,29.85,10.0,North,4.6,-,N/A,,Overcast,10,2013-03-15 19:54:00
4:14 PM,36.0,25.3,65,29.85,10.0,NNW,5.8,-,N/A,,Overcast,330,2013-03-15 20:14:00
4:34 PM,36.5,25.0,63,29.86,10.0,NW,3.5,-,N/A,,Overcast,320,2013-03-15 20:34:00
4:54 PM,36.5,24.6,62,29.85,10.0,Calm,Calm,-,N/A,,Overcast,0,2013-03-15 20:54:00
5:14 PM,37.0,23.9,59,29.85,10.0,Calm,Calm,-,N/A,,Overcast,0,2013-03-15 21:14:00
5:34 PM,37.8,23.9,57,29.85,10.0,Calm,Calm,-,N/A,,Overcast,0,2013-03-15 21:34:00
5:54 PM,37.6,23.2,56,29.85,10.0,NNE,3.5,-,N/A,,Mostly Cloudy,20,2013-03-15 21:54:00
6:14 PM,37.4,21.2,52,29.84,10.0,NNE,6.9,-,N/A,,Mostly Cloudy,20,2013-03-15 22:14:00
6:34 PM,36.7,19.8,50,29.84,10.0,NE,5.8,-,N/A,,Scattered Clouds,50,2013-03-15 22:34:00
6:54 PM,36.9,20.1,51,29.84,10.0,NNE,5.8,-,N/A,,Clear,30,2013-03-15 22:54:00
7:14 PM,36.3,19.8,51,29.84,10.0,NNE,8.1,-,N/A,,Scattered Clouds,20,2013-03-15 23:14:00
7:34 PM,35.1,20.3,55,29.84,10.0,North,6.9,-,N/A,,Mostly Cloudy,10,2013-03-15 23:34:00
7:53 PM,34.7,20.3,56,29.85,10.0,North,6.9,-,N/A,,Mostly Cloudy,360,2013-03-15 23:53:00
8:14 PM,34.2,18.7,53,29.85,10.0,North,4.6,-,N/A,,Mostly Cloudy,10,2013-03-16 00:14:00
8:34 PM,33.3,19.0,56,29.85,10.0,NNE,4.6,-,N/A,,Overcast,30,2013-03-16 00:34:00
8:53 PM,33.1,19.4,57,29.85,10.0,NE,5.8,-,N/A,,Overcast,50,2013-03-16 00:53:00
9:14 PM,32.9,18.7,56,29.86,10.0,North,9.2,-,N/A,,Overcast,10,2013-03-16 01:14:00
9:34 PM,32.0,19.2,59,29.86,10.0,NE,8.1,-,N/A,,Overcast,40,2013-03-16 01:34:00
9:53 PM,32.0,18.3,57,29.86,10.0,NE,4.6,-,N/A,,Overcast,50,2013-03-16 01:53:00
10:14 PM,31.8,18.1,57,29.86,10.0,NE,5.8,-,N/A,,Overcast,40,2013-03-16 02:14:00
10:34 PM,31.5,18.1,58,29.86,10.0,NNE,8.1,-,N/A,,Overcast,30,2013-03-16 02:34:00
10:53 PM,31.1,18.3,59,29.85,10.0,ENE,6.9,-,N/A,,Overcast,70,2013-03-16 02:53:00
11:14 PM,30.9,18.7,61,29.85,10.0,NE,6.9,-,N/A,,Overcast,50,2013-03-16 03:14:00
11:34 PM,30.6,18.9,62,29.86,10.0,NE,8.1,-,N/A,,Overcast,50,2013-03-16 03:34:00
11:53 PM,30.4,18.9,62,29.86,10.0,NNE,8.1,-,N/A,,Overcast,20,2013-03-16 03:53:00